Downstream station:
SHEF ID: MCNK1 LIGHTNING C NR MCCUNE, KS
STATION TYPE:
Regulating: Stage = 14.50, Flow = 3778
STAGE RIV-FLOW BAT-LOAD
ft cfs volt
Ccp-Rev Ccp-Rev Ccp-Rev
(US/Central)
04/01 00:00 1.60 32 12.89
04/01 01:00 1.60 32 12.83
04/01 02:00 1.60 32 12.83
04/01 03:00 1.61 33 12.83
04/01 04:00 1.61 33 12.77
04/01 05:00 1.61 33 12.77
04/01 06:00 1.61 33 12.77
04/01 07:00 1.61 33 12.71
04/01 08:00 1.61 33 12.77
04/01 09:00 1.62 34 13.18
04/01 10:00 1.64 36 14.12
04/01 11:00 1.66 38 14.30
04/01 12:00 1.69 41 14.24
04/01 13:00 1.73 45 14.24
04/01 14:00 1.76 48 14.12
04/01 15:00 1.79 52 14.06
04/01 16:00 1.81 54 14.00
04/01 17:00 1.83 57 13.94
04/01 18:00 1.83 57 13.88
04/01 19:00 1.84 58 13.36
04/01 20:00 1.84 58 13.00
04/01 21:00 1.84 58 13.00
04/01 22:00 1.84 58 12.95
04/01 23:00 ---- ---- ----